GFSSE_850_thetae_021.txt.gz
Theta_e
329 333 331 331 332 332 331 331 332 334 334 333 333 333 331 328 324 322 322 322 333 333 327 324 323 322 320 322 323 323 323 322 323 333 333 331 331 329 331 332 335 334 333
325 329 331 331 332 332 332 333 333 333 333 332 332 331 330 327 324 324 323 333 333 328 328 326 326 326 325 321 322 323 322 321 323 327 333 333 332 332 333 334 334 334 333
325 324 329 331 330 331 331 330 330 331 331 331 330 330 328 326 325 325 324 332 332 330 327 325 323 322 320 323 323 321 322 323 324 329 330 332 333 330 329 331 331 331 330
323 324 326 328 330 330 329 329 329 331 330 329 327 327 325 324 323 324 329 331 331 328 324 323 319 320 321 321 320 320 320 321 323 325 328 329 333 332 333 325 327 327 326
321 321 324 327 328 329 329 329 329 329 328 327 326 326 325 323 322 322 328 331 329 325 322 321 319 318 319 319 317 317 319 321 322 323 324 328 329 332 332 331 323 322 322
319 320 321 326 328 328 329 329 328 327 327 327 326 325 324 324 323 319 324 323 320 320 319 319 316 315 314 313 313 313 313 313 314 315 316 320 324 324 317 327 334 325 323
317 319 319 322 325 327 328 329 329 328 327 326 326 324 324 324 320 315 318 317 316 314 314 314 314 313 312 311 309 308 307 306 306 307 308 311 315 316 314 313 320 321 320
316 317 319 319 320 323 326 327 327 328 328 328 328 328 326 324 322 315 312 313 313 312 312 312 311 309 306 305 304 304 304 304 304 304 304 304 305 305 304 306 310 311 313
316 316 317 319 319 319 324 325 326 328 327 327 327 331 330 331 327 317 312 311 310 310 309 308 307 305 304 303 304 305 306 306 306 307 307 307 307 306 306 305 305 306 308
316 316 316 318 319 319 318 319 322 322 324 324 325 329 331 331 331 324 318 311 309 308 307 306 305 303 303 304 306 306 306 306 307 307 307 307 307 307 306 305 305 305 305
316 317 316 316 317 319 319 318 318 318 318 321 328 329 329 331 330 325 321 314 309 307 305 305 304 303 304 306 306 306 306 306 306 306 306 306 306 306 306 305 305 305 304
317 317 317 316 316 317 319 319 318 317 317 317 319 327 327 327 329 327 324 317 309 306 305 305 304 304 304 305 305 305 306 306 306 306 306 306 306 306 305 305 305 305 304
317 316 317 319 318 316 317 318 319 318 318 318 316 320 329 329 326 325 323 316 310 307 305 306 305 304 305 306 306 306 306 306 306 306 306 306 305 305 305 305 305 305 304
316 316 316 317 318 319 317 318 318 319 319 319 318 318 326 331 328 319 319 317 311 308 305 306 304 304 305 305 305 306 306 306 307 307 307 307 306 306 305 305 304 304 304
316 315 315 315 317 318 320 319 320 320 320 321 321 321 319 326 327 321 317 316 313 309 306 306 305 304 304 305 305 305 306 306 307 307 307 307 306 305 304 304 304 303 303
316 316 315 315 315 316 318 320 320 322 324 324 324 324 324 321 321 322 317 317 316 311 306 305 305 304 304 304 305 305 305 306 306 306 306 306 305 305 304 304 304 303 303
314 315 315 315 315 315 317 319 321 321 325 326 325 325 324 324 322 322 322 319 317 313 308 304 304 304 303 304 304 304 305 305 305 305 305 306 306 305 304 303 303 302 307
313 314 314 315 315 315 316 318 319 320 321 324 326 326 329 329 326 326 325 324 322 317 310 306 304 304 304 303 303 303 304 304 305 305 305 305 305 305 304 302 302 304 309
312 312 312 312 313 315 317 319 321 321 321 323 324 325 328 326 327 328 327 325 324 320 313 308 306 305 304 303 302 302 303 303 304 304 304 304 304 304 303 302 301 302 304
308 309 310 311 312 313 313 314 321 323 323 323 324 325 325 325 325 325 325 324 322 319 316 311 307 306 304 302 301 301 301 302 303 303 303 303 303 304 303 302 300 300 301
307 308 308 309 310 311 311 311 312 317 321 322 323 322 322 322 322 322 321 322 321 319 317 314 310 306 304 301 300 300 300 301 302 302 303 303 303 303 303 302 300 299 299
305 306 306 306 307 308 309 311 312 314 316 319 320 319 319 319 318 318 318 318 318 318 316 314 311 307 305 301 300 299 299 300 301 301 302 302 302 302 302 302 300 299 298
305 305 305 305 306 306 307 309 310 311 314 315 316 316 315 316 316 315 315 315 314 314 314 314 312 309 305 302 300 299 299 300 301 301 301 301 301 302 301 301 301 300 299
302 304 305 305 305 305 304 305 305 306 306 307 307 307 307 309 311 312 312 312 312 311 310 310 311 308 305 302 300 299 299 300 301 301 301 301 301 301 301 301 301 301 301
303 303 304 304 305 305 305 305 304 303 303 304 305 305 304 304 303 304 305 308 309 308 307 306 306 307 305 302 300 299 299 298 300 301 301 302 301 302 301 300 300 299 300
302 302 302 303 303 303 303 303 303 304 303 302 302 301 301 301 301 301 301 301 303 306 306 305 304 304 304 303 302 300 298 298 298 299 300 300 301 302 301 301 300 299 299

GFSSE_850_thetae_024.txt.gz
Theta_e
328 332 333 335 335 334 335 331 330 330 332 333 333 334 332 328 324 322 322 324 334 331 324 324 323 320 321 322 322 322 322 323 333 336 329 330 329 328 328 332 334 336 338
325 329 331 332 332 332 333 332 332 333 333 332 331 331 330 328 324 323 324 335 332 323 324 325 326 325 321 321 322 323 322 323 326 330 330 331 330 330 331 331 334 333 331
324 325 331 331 331 331 331 331 332 332 332 332 331 330 330 327 325 324 324 334 333 328 325 324 323 321 320 323 320 321 322 323 323 326 330 330 333 329 329 330 331 330 328
322 323 329 330 330 331 331 331 329 329 330 330 329 329 327 325 324 323 323 330 331 329 324 323 320 319 320 320 319 320 321 322 323 324 326 329 333 333 332 327 326 326 326
321 322 323 329 330 330 330 329 328 328 329 328 327 326 325 323 323 323 329 329 329 326 323 321 319 318 319 320 318 319 321 321 322 322 323 325 328 330 334 330 323 322 321
319 321 320 325 329 330 330 329 329 329 328 326 326 325 325 323 321 321 322 327 323 321 319 318 318 316 315 315 314 314 314 315 317 319 320 321 322 323 323 325 331 324 324
316 318 320 321 326 328 329 329 329 329 328 327 333 328 325 323 321 320 317 318 318 315 315 315 314 314 313 312 311 309 309 309 310 311 312 313 315 316 316 311 317 321 320
316 317 319 320 322 325 327 328 328 328 327 326 332 333 333 331 324 322 315 314 314 313 312 312 312 312 310 308 305 304 304 304 304 304 304 305 307 308 307 305 310 314 315
316 316 318 319 320 322 325 327 327 328 327 327 328 328 330 330 329 327 321 312 311 311 310 310 309 307 305 304 303 304 304 305 305 306 305 305 305 306 305 305 306 307 309
316 316 316 318 319 320 320 322 325 327 328 328 328 327 329 330 330 326 322 316 312 309 309 307 306 304 303 303 304 305 306 307 307 307 307 307 307 307 306 306 305 305 305
317 316 316 317 319 319 320 321 319 320 321 331 332 330 328 329 330 327 326 321 317 310 308 306 305 304 303 304 305 306 306 306 306 306 307 307 307 307 306 306 306 306 306
316 317 316 316 317 318 320 321 321 320 326 335 335 331 331 329 329 328 329 327 324 314 308 305 305 304 303 304 306 306 306 306 306 306 306 306 307 307 307 306 306 306 306
316 316 316 316 316 318 317 317 319 320 321 322 322 328 329 335 335 333 329 329 325 317 310 306 305 304 304 305 306 306 306 306 306 306 306 306 306 306 306 306 306 306 306
315 316 317 316 315 316 318 319 318 319 319 319 320 323 329 334 332 334 329 325 327 323 312 307 305 304 304 304 305 306 306 307 307 307 307 307 307 306 305 305 305 305 305
315 316 316 316 317 316 317 318 319 319 321 321 322 322 323 326 337 333 331 325 321 322 315 309 304 304 304 304 305 306 307 307 307 308 308 307 307 306 306 305 305 305 304
314 315 316 316 316 317 317 318 320 321 321 323 325 326 326 325 326 331 328 328 324 321 319 313 306 304 303 303 304 305 305 306 307 307 307 307 307 307 306 305 304 304 304
313 314 315 315 315 315 317 318 321 322 323 324 326 327 328 328 327 326 325 328 326 322 322 319 310 305 303 302 303 304 304 305 305 306 306 306 306 306 306 306 305 304 303
312 312 313 314 315 315 315 321 324 324 324 324 326 327 328 329 329 327 329 328 323 327 323 321 315 307 305 303 302 302 303 303 304 305 305 306 306 306 306 306 305 304 303
310 310 311 312 313 314 315 321 325 325 325 325 325 326 327 326 325 325 325 325 327 326 325 323 320 311 306 305 303 302 301 302 303 304 305 305 305 305 305 306 305 304 303
307 308 309 310 312 314 315 317 322 323 324 324 324 324 324 324 324 324 324 323 324 323 323 323 321 315 310 307 306 303 300 301 301 302 303 304 304 304 304 304 304 303 302
307 307 307 308 309 310 311 312 314 319 321 322 321 321 321 321 322 322 322 322 323 322 320 319 319 316 313 310 308 304 301 300 300 301 301 302 303 303 303 303 303 302 301
305 306 306 306 307 308 309 311 312 313 315 318 319 318 318 318 319 318 318 318 317 317 318 316 315 315 314 311 308 303 299 300 300 300 301 302 302 302 303 303 302 302 301
305 306 306 306 305 305 305 307 308 310 312 314 316 315 314 314 314 315 315 316 316 316 314 314 313 312 312 311 309 304 298 299 300 301 301 301 301 302 302 302 302 302 302
303 304 305 305 305 305 305 306 305 304 305 305 305 306 308 308 309 311 310 311 312 312 312 311 311 309 309 308 307 306 302 299 299 300 301 301 301 301 301 302 302 301 301
301 302 302 302 302 302 304 304 304 304 302 301 302 303 302 302 302 303 305 306 307 308 308 307 307 307 306 306 305 304 303 301 299 298 299 299 300 301 302 302 301 301 301
301 302 302 302 302 302 301 301 301 302 302 302 302 301 300 299 300 300 301 301 301 302 303 305 305 305 304 304 304 302 301 300 299 298 298 298 298 299 300 301 301 302 301

GFSSE_850_thetae_030.txt.gz
Theta_e
326 332 333 334 335 334 332 333 334 332 331 333 333 333 331 327 324 322 322 328 334 323 321 321 319 320 321 321 321 321 322 327 333 330 336 336 333 331 335 336 339 340 339
323 330 332 334 334 334 333 331 331 330 331 333 333 333 330 327 324 323 328 336 334 326 322 322 324 322 319 320 322 322 322 327 330 329 331 330 330 330 331 333 333 335 338
322 328 330 332 333 333 333 332 330 329 331 332 331 330 330 328 325 324 331 333 334 330 323 322 321 320 322 321 320 321 321 322 323 326 328 327 328 328 328 329 330 329 326
322 326 329 331 332 333 333 334 332 330 332 331 330 330 329 328 325 324 327 330 330 329 324 320 320 319 319 319 320 321 320 320 322 324 325 326 331 333 330 325 326 326 325
320 322 327 329 331 331 330 331 331 332 330 329 329 328 327 326 324 323 323 328 329 326 324 320 320 318 319 320 319 319 320 320 321 321 323 324 327 331 329 322 321 322 321
318 322 323 329 330 330 330 330 331 331 328 328 327 326 325 325 323 321 321 330 330 317 318 318 317 317 316 316 316 316 315 316 318 319 320 321 321 323 324 322 318 322 325
316 319 322 324 329 330 330 331 331 331 329 328 328 326 330 326 323 321 320 323 315 314 313 313 315 314 314 313 312 312 311 311 312 313 313 314 314 316 316 316 314 314 326
316 316 317 320 322 327 329 330 331 331 330 329 329 328 331 329 325 325 323 321 315 311 311 311 311 312 312 311 309 307 306 306 306 305 306 306 307 307 307 307 306 306 309
316 316 317 318 320 322 326 328 329 329 330 330 329 329 331 331 330 328 327 325 322 315 311 310 310 309 309 306 304 304 303 303 304 304 305 305 306 307 307 307 306 306 307
316 317 317 319 320 322 324 326 328 328 329 330 330 329 330 331 330 328 328 327 327 321 318 310 308 307 306 304 303 303 304 305 306 306 307 307 307 307 307 307 307 306 306
316 317 318 318 320 321 322 325 326 328 330 332 332 331 331 330 329 329 329 329 328 328 324 319 309 306 305 303 303 303 304 305 306 306 306 306 306 306 306 306 307 306 307
314 315 316 317 319 320 322 324 325 327 332 335 333 332 331 330 330 330 331 330 329 329 328 325 320 309 304 303 303 303 304 305 305 306 306 306 306 306 307 306 306 306 306
313 313 314 316 317 318 319 320 322 324 328 330 334 333 331 331 329 330 329 329 328 329 327 326 325 317 306 303 302 303 304 305 305 305 305 306 307 307 307 307 307 306 306
313 313 314 315 315 316 317 318 319 322 324 332 331 328 331 330 330 329 328 328 328 326 328 327 324 323 313 305 302 302 303 304 304 305 305 306 306 307 307 307 307 307 306
313 313 313 314 314 315 316 318 321 323 323 325 327 330 327 329 328 328 326 325 326 326 324 325 325 322 318 310 304 302 302 303 304 304 305 305 306 306 306 307 307 307 306
312 312 313 313 314 315 315 318 323 325 326 326 327 328 332 331 329 327 327 326 324 324 325 323 323 321 322 319 311 305 302 302 303 304 304 305 306 306 306 306 306 306 306
310 311 311 312 313 314 315 317 323 326 327 328 329 329 329 329 327 326 327 326 325 325 324 323 322 322 322 321 319 311 305 302 301 302 303 304 305 305 306 306 306 306 305
308 309 310 311 313 315 316 318 322 325 327 328 326 326 325 326 327 327 326 325 324 323 324 324 323 321 321 321 320 320 313 307 303 301 301 302 303 304 305 305 306 305 305
308 308 310 313 315 317 318 320 323 325 326 325 325 323 324 324 323 324 325 324 325 325 325 326 324 321 322 319 319 318 318 313 307 305 302 301 301 302 303 304 305 305 304
307 308 309 311 315 317 320 322 323 324 325 323 322 320 320 321 321 321 322 323 323 324 324 323 323 323 322 320 318 317 316 316 314 311 307 305 301 301 301 302 303 303 304
306 306 307 309 310 311 313 314 316 317 319 320 317 316 317 317 317 317 318 319 320 320 319 319 318 318 316 316 315 314 314 314 314 314 313 310 306 303 300 300 301 302 302
305 305 306 306 306 306 307 307 308 311 312 314 315 314 313 313 312 313 314 314 315 315 316 316 316 315 314 313 312 311 311 311 311 307 303 301 301 301 302 301 300 300 301
302 303 303 303 303 303 303 304 304 305 307 306 306 307 304 304 304 305 307 309 310 311 311 311 311 311 311 311 309 308 306 304 307 308 309 307 307 304 299 299 299 299 299
302 302 302 302 302 301 302 302 302 302 302 302 302 302 302 302 302 302 302 302 303 304 305 306 307 307 306 307 307 307 305 302 300 301 303 307 308 308 307 304 300 298 298
300 300 300 301 300 300 300 300 300 300 299 298 297 298 298 297 297 297 297 298 298 298 299 299 299 300 301 302 303 303 304 304 303 301 300 301 303 306 306 305 303 302 300
299 298 298 299 300 299 299 299 299 298 297 296 295 295 293 292 292 292 291 291 290 290 290 290 291 294 296 296 298 299 300 300 301 301 300 301 301 302 304 305 305 306 304

GFSSE_850_thetae_033.txt.gz
Theta_e
329 332 333 335 334 333 334 334 334 333 333 333 333 332 329 326 323 323 325 331 330 322 321 322 319 320 321 321 321 321 324 331 332 334 335 335 335 336 336 338 339 339 339
325 331 332 334 335 333 331 334 334 332 331 333 333 332 329 326 324 324 334 334 332 324 320 321 323 322 320 320 321 322 325 330 331 330 330 329 329 330 331 333 333 337 338
322 330 332 333 334 334 332 332 332 330 331 332 331 330 329 327 325 326 332 333 331 326 321 320 319 319 321 321 320 321 323 324 326 328 326 326 329 329 327 329 329 328 328
322 328 330 332 333 333 333 332 330 329 330 332 331 330 329 328 325 326 330 328 326 324 321 319 319 318 319 319 319 320 321 321 322 322 324 326 332 332 327 324 325 325 325
321 324 330 331 332 333 333 333 333 331 332 330 330 329 328 326 325 325 325 327 325 321 321 319 318 317 317 319 319 318 319 320 321 321 322 323 326 331 325 319 317 321 320
319 322 325 329 330 332 331 331 332 331 332 328 328 327 326 325 325 323 326 329 324 314 315 316 317 316 316 315 314 314 314 315 316 318 319 320 322 322 321 319 316 316 322
318 323 325 327 329 330 329 330 330 331 332 329 328 328 325 327 325 322 322 321 316 311 312 311 313 314 313 313 312 311 310 310 311 311 312 313 313 314 314 313 312 311 311
316 319 324 326 328 330 330 330 330 331 331 329 329 329 329 331 327 327 326 324 322 315 311 310 311 311 311 310 308 306 305 304 304 304 304 305 305 306 306 306 306 306 307
317 318 319 321 325 327 332 333 333 333 330 330 330 330 329 331 331 330 328 327 326 324 318 311 309 309 308 306 304 303 303 303 304 304 305 306 306 307 307 307 306 306 306
316 317 318 320 321 323 326 330 333 332 331 330 330 330 330 330 331 330 329 329 329 328 326 321 312 307 306 304 303 303 303 305 305 306 306 306 306 306 306 306 306 306 306
316 316 317 318 320 322 324 326 328 331 330 330 331 331 331 330 330 331 331 329 331 330 328 327 324 314 306 304 303 303 304 305 305 305 305 305 306 306 306 306 306 306 306
314 314 315 316 317 318 320 322 325 329 330 331 332 331 331 330 329 329 328 328 329 328 325 326 325 324 312 304 303 302 303 304 305 305 305 306 306 306 306 306 306 306 306
313 313 313 314 316 317 318 321 323 325 328 334 332 331 329 329 329 328 328 328 326 326 326 325 325 322 323 312 304 302 302 303 304 305 305 306 306 307 307 307 307 306 306
313 313 313 314 314 315 317 319 323 326 335 331 332 329 326 327 329 328 327 327 326 325 325 324 323 324 321 320 310 303 301 302 303 304 304 305 306 307 307 307 307 307 307
312 313 313 313 314 314 315 317 320 324 328 332 330 329 329 326 326 327 326 326 323 324 322 324 324 323 322 320 317 309 304 302 302 303 304 304 305 306 306 306 306 307 307
311 311 312 313 313 314 314 318 323 331 327 326 328 328 327 329 329 327 327 325 325 325 324 323 323 322 321 320 320 319 314 306 302 301 303 303 304 305 305 306 306 306 306
309 310 311 311 313 314 314 318 324 327 327 327 329 326 326 325 326 326 326 328 328 327 327 326 324 322 321 321 319 320 320 317 309 305 302 301 302 303 304 305 305 305 305
309 310 312 313 314 315 316 318 322 326 330 326 325 325 324 324 324 328 327 326 327 326 326 324 324 324 322 320 319 318 318 318 318 312 306 303 301 301 302 303 304 304 304
309 311 313 316 318 319 321 323 325 327 326 324 323 322 322 322 323 322 322 322 323 323 323 324 324 323 322 321 321 320 318 317 316 316 313 308 305 303 301 301 302 303 303
308 311 315 316 318 320 321 322 323 323 322 321 320 320 318 319 319 319 319 320 320 320 321 322 322 321 320 319 318 318 317 316 316 314 314 314 313 309 306 302 301 301 302
308 309 310 312 314 315 316 318 319 318 318 318 317 316 316 316 316 316 316 316 316 316 317 316 316 316 316 316 315 315 314 313 313 313 312 310 311 309 307 305 302 300 300
305 305 306 306 307 307 307 307 308 310 311 312 311 310 308 307 307 307 309 311 312 312 313 313 313 312 312 311 311 311 311 311 310 310 308 304 303 305 305 300 300 300 299
303 303 303 303 303 303 303 304 304 304 304 304 304 303 303 303 303 303 304 304 304 305 306 306 306 308 308 308 307 306 307 306 306 306 307 307 308 308 308 308 305 302 299
302 302 302 302 302 301 301 302 302 302 302 301 301 300 299 299 299 299 299 299 300 300 300 300 299 300 301 301 302 304 303 302 302 303 303 303 305 305 306 306 305 306 305
300 300 300 300 300 300 300 299 299 299 297 295 295 294 294 293 293 293 292 292 292 291 291 291 291 291 293 295 296 297 298 299 300 297 298 300 300 301 301 303 304 305 305
299 299 299 299 299 298 298 298 298 298 297 296 295 295 294 292 292 291 291 290 290 290 289 289 288 288 288 288 288 288 288 289 291 292 293 295 295 297 297 298 300 300 302